Location: Stone Trail Observatory
(44.2408°N, 105.6081°W)
Time: 21:50:17
(UTC-07:00)

Iridium 6 - Visible Passes

Search period start: 20 December 2014 00:00
Search period end: 30 December 2014 00:00
Orbit: 776 x 779 km, 86.4° (Epoch: 20 December)

Date Brightness Start Highest point End Pass type
(mag) Time Alt. Az. Time Alt. Az. Time Alt. Az.
20 Dec 6.1 17:08:05 10° SSW 17:13:14 61° W 17:18:24 10° N visible
21 Dec 8.3 18:18:20 10° WSW 18:21:02 14° WNW 18:23:44 10° NW visible
22 Dec 7.8 17:42:56 10° SW 17:47:08 25° WNW 17:51:22 10° NNW visible
23 Dec 6.8 17:08:27 10° SSW 17:13:23 43° W 17:18:20 10° N visible
25 Dec 8.2 17:43:58 10° WSW 17:47:24 18° WNW 17:50:52 10° NNW visible
26 Dec 7.5 17:09:00 10° SW 17:13:34 30° WNW 17:18:09 10° NNW visible
28 Dec 8.3 17:45:34 10° W 17:47:43 12° WNW 17:49:52 10° NW visible
29 Dec 7.9 17:09:48 10° SW 17:13:47 22° WNW 17:17:47 10° NNW visible
